FW7253 Weather Reports


Display with metric or nautical units.
time (UTC)temp
F
wind
direction
speed
MPH
gust
MPH
rain 1hr
in
rain 24hr
in
rain mn
in
humidity
%
barometer
mb
20260507165035 54 209 5.0 12.0 0.00 0.00 0.00 33 1018.5
20260507164547 55 173 3.0 11.0 0.00 0.00 0.00 31 1018.4
20260507164040 55 174 5.0 11.0 0.00 0.00 0.00 31 1018.3
20260507163536 54 213 2.0 9.0 0.00 0.00 0.00 31 1018.3
20260507163045 55 210 4.0 10.0 0.00 0.00 0.00 31 1018.2
20260507162535 54 80 3.0 10.0 0.00 0.00 0.00 32 1018.2
20260507162035 55 138 5.0 11.0 0.00 0.00 0.00 32 1018.2
20260507161546 55 205 4.0 11.0 0.00 0.00 0.00 33 1018.2
20260507161037 55 124 4.0 11.0 0.00 0.00 0.00 34 1018.2
20260507160535 55 354 3.0 10.0 0.00 0.00 0.00 32 1018.3
20260507160046 55 135 5.0 10.0 0.00 0.00 0.00 32 1018.3
20260507155535 55 161 5.0 10.0 0.00 0.00 0.00 33 1018.2
20260507155037 55 137 4.0 11.0 0.00 0.00 0.00 34 1018.2
20260507154548 55 99 4.0 11.0 0.00 0.00 0.00 33 1018.3
20260507154034 55 65 5.0 11.0 0.00 0.00 0.00 34 1018.2
20260507153535 55 133 3.0 9.0 0.00 0.00 0.00 33 1018.2
20260507153051 55 136 3.0 14.0 0.00 0.00 0.00 35 1018.1
20260507152534 56 163 5.0 14.0 0.00 0.00 0.00 35 1018.0
20260507152036 55 136 7.0 14.0 0.00 0.00 0.00 34 1018.1
20260507151547 56 154 4.0 13.0 0.00 0.00 0.00 35 1018.1
20260507151034 55 142 6.0 13.0 0.00 0.00 0.00 33 1018.1
20260507150535 56 153 3.0 12.0 0.00 0.00 0.00 34 1018.1
20260507150047 56 164 3.0 11.0 0.00 0.00 0.00 33 1018.0
20260507145535 56 223 7.0 11.0 0.00 0.00 0.00 35 1018.0
20260507145034 56 262 5.0 11.0 0.00 0.00 0.00 34 1017.9
20260507144545 55 179 5.0 11.0 0.00 0.00 0.00 34 1018.0
20260507144037 56 136 4.0 11.0 0.00 0.00 0.00 34 1018.0
20260507143535 56 228 7.0 11.0 0.00 0.00 0.00 32 1018.0
20260507143047 56 158 4.0 10.0 0.00 0.00 0.00 36 1018.0
20260507142534 55 90 5.0 10.0 0.00 0.00 0.00 34 1018.0
20260507142034 55 111 5.0 10.0 0.00 0.00 0.00 33 1018.0
20260507141543 56 138 5.0 10.0 0.00 0.00 0.00 34 1018.0
20260507141034 56 192 5.0 14.0 0.00 0.00 0.00 33 1018.0
20260507140534 57 219 7.0 14.0 0.00 0.00 0.00 34 1018.0
20260507140045 56 99 4.0 14.0 0.00 0.00 0.00 34 1017.9
20260507135534 56 172 6.0 14.0 0.00 0.00 0.00 34 1017.8
20260507135033 56 136 3.0 11.0 0.00 0.00 0.00 35 1017.9
20260507134553 56 165 5.0 11.0 0.00 0.00 0.00 33 1018.0
20260507134033 57 155 3.0 14.0 0.00 0.00 0.00 34 1017.9
20260507133533 56 136 5.0 14.0 0.00 0.00 0.00 34 1017.8
20260507133048 57 208 5.0 14.0 0.00 0.00 0.00 34 1017.9
20260507132532 57 203 2.0 6.0 0.00 0.00 0.00 30 1017.8
20260507132036 56 217 2.0 8.0 0.00 0.00 0.00 29 1017.8
20260507131556 56 139 3.0 10.0 0.00 0.00 0.00 29 1017.8
20260507131032 57 100 3.0 10.0 0.00 0.00 0.00 27 1017.7
20260507130532 57 217 4.0 8.0 0.00 0.00 0.00 29 1017.7
20260507130101 57 214 3.0 8.0 0.00 0.00 0.00 27 1017.7
20260507125532 57 119 2.0 5.0 0.00 0.00 0.00 31 1017.7
20260507125033 56 165 2.0 7.0 0.00 0.00 0.00 30 1017.8
20260507124551 57 126 3.0 7.0 0.00 0.00 0.00 29 1017.8
20260507124036 57 123 2.0 7.0 0.00 0.00 0.00 28 1017.8
20260507123533 56 321 1.0 7.0 0.00 0.00 0.00 30 1017.8
20260507123042 55 269 4.0 7.0 0.00 0.00 0.00 28 1017.8
20260507122532 55 83 1.0 9.0 0.00 0.00 0.00 28 1017.9
20260507122033 55 236 4.0 9.0 0.00 0.00 0.00 29 1017.9
20260507121540 55 282 2.0 7.0 0.00 0.00 0.00 29 1017.8
20260507121033 55 104 1.0 11.0 0.00 0.00 0.00 30 1017.8
20260507120532 55 178 7.0 11.0 0.00 0.00 0.00 29 1017.9
20260507120042 55 177 6.0 9.0 0.00 0.00 0.00 27 1017.8
20260507115534 56 211 3.0 9.0 0.00 0.00 0.00 31 1017.8
20260507115033 55 130 2.0 10.0 0.00 0.00 0.00 30 1017.8
20260507114600 54 0 4.0 10.0 0.00 0.00 0.00 29 1017.9
20260507114033 55 209 3.0 10.0 0.00 0.00 0.00 32 1017.9
20260507113533 55 140 2.0 10.0 0.00 0.00 0.00 31 1017.9
20260507113045 55 217 5.0 10.0 0.00 0.00 0.00 31 1018.0
20260507112533 54 187 4.0 7.0 0.00 0.00 0.00 31 1018.0
20260507112032 55 156 3.0 7.0 0.00 0.00 0.00 31 1018.0
20260507111542 54 220 2.0 7.0 0.00 0.00 0.00 32 1018.0
20260507111033 54 214 3.0 6.0 0.00 0.00 0.00 29 1018.1
20260507110533 54 125 2.0 8.0 0.00 0.00 0.00 31 1018.0
20260507110043 53 248 5.0 8.0 0.00 0.00 0.00 32 1017.9
20260507105531 53 302 1.0 5.0 0.00 0.00 0.00 34 1018.0
20260507105034 53 181 2.0 9.0 0.00 0.00 0.00 30 1018.0
20260507104539 52 112 6.0 9.0 0.00 0.00 0.00 32 1017.9
20260507104035 53 115 4.0 8.0 0.00 0.00 0.00 34 1017.8
20260507103537 53 134 4.0 7.0 0.00 0.00 0.00 30 1017.9
20260507103040 52 148 3.0 6.0 0.00 0.00 0.00 35 1017.9
20260507102535 53 56 2.0 6.0 0.00 0.00 0.00 32 1017.9
20260507102035 53 151 3.0 6.0 0.00 0.00 0.00 33 1017.9
20260507101546 52 162 3.0 6.0 0.00 0.00 0.00 34 1017.7
20260507101034 52 197 3.0 6.0 0.00 0.00 0.00 32 1017.8
20260507100537 52 177 2.0 4.0 0.00 0.00 0.00 34 1017.8
20260507100047 52 173 2.0 5.0 0.00 0.00 0.00 32 1017.8
20260507095534 51 139 2.0 8.0 0.00 0.00 0.00 34 1017.9
20260507095033 52 17 2.0 10.0 0.00 0.00 0.00 34 1017.8
20260507094541 52 5 5.0 10.0 0.00 0.00 0.00 36 1017.8
20260507094038 51 296 3.0 6.0 0.00 0.00 0.00 35 1017.7
20260507093534 51 127 2.0 5.0 0.00 0.00 0.00 37 1017.7
20260507093048 50 231 1.0 6.0 0.00 0.00 0.00 38 1017.8
20260507092534 50 354 3.0 8.0 0.00 0.00 0.00 35 1017.8
20260507092037 50 340 4.0 8.0 0.00 0.00 0.00 37 1017.9
20260507091541 50 350 2.0 7.0 0.00 0.00 0.00 39 1017.9
20260507091034 50 339 0.0 8.0 0.00 0.00 0.00 36 1017.9
20260507090534 49 248 3.0 8.0 0.00 0.00 0.00 40 1017.8
20260507090039 49 342 0.0 6.0 0.00 0.00 0.00 36 1017.9
20260507085533 49 306 1.0 8.0 0.00 0.00 0.00 36 1017.9
20260507085034 49 289 5.0 8.0 0.00 0.00 0.00 37 1017.8
20260507084547 49 291 2.0 6.0 0.00 0.00 0.00 36 1017.9
20260507084034 49 342 1.0 6.0 0.00 0.00 0.00 39 1017.9
20260507083534 48 348 1.0 7.0 0.00 0.00 0.00 36 1017.8
20260507083047 48 308 4.0 7.0 0.00 0.00 0.00 39 1017.8
20260507082534 48 58 2.0 7.0 0.00 0.00 0.00 36 1017.8
20260507082034 47 131 2.0 7.0 0.00 0.00 0.00 38 1017.9
20260507081548 47 9 2.0 5.0 0.00 0.00 0.00 38 1017.7
20260507081036 48 0 2.0 4.0 0.00 0.00 0.00 39 1017.8
20260507080534 48 338 1.0 7.0 0.00 0.00 0.00 41 1017.7
20260507080047 47 142 1.0 7.0 0.00 0.00 0.00 43 1017.7
20260507075534 47 333 1.0 9.0 0.00 0.00 0.00 42 1017.7
20260507075034 47 337 1.0 9.0 0.00 0.00 0.00 42 1017.7
20260507074602 47 354 5.0 9.0 0.00 0.00 0.00 41 1017.6
20260507074034 46 298 5.0 12.0 0.00 0.00 0.00 45 1017.5
20260507073535 46 326 4.0 12.0 0.00 0.00 0.00 44 1017.5
20260507073039 45 360 7.0 12.0 0.00 0.00 0.00 44 1017.5
20260507072535 45 14 6.0 11.0 0.00 0.00 0.00 45 1017.5
20260507072033 45 309 5.0 10.0 0.00 0.00 0.00 46 1017.4
20260507071546 45 352 5.0 10.0 0.00 0.00 0.00 46 1017.4
20260507071034 44 345 6.0 10.0 0.00 0.00 0.00 46 1017.3
20260507070534 44 331 6.0 11.0 0.00 0.00 0.00 48 1017.3
20260507070046 44 329 6.0 12.0 0.00 0.00 0.00 48 1017.3
20260507065534 44 347 7.0 12.0 0.00 0.00 0.00 47 1017.3
20260507065034 43 340 6.0 12.0 0.00 0.00 0.00 48 1017.4
20260507064541 43 321 8.0 12.0 0.00 0.00 0.00 48 1017.4
20260507064037 43 324 5.0 11.0 0.00 0.00 0.00 49 1017.4
20260507063533 43 307 7.0 10.0 0.00 0.00 0.00 49 1017.3
20260507063043 43 359 5.0 10.0 0.00 0.00 0.00 49 1017.3
20260507062535 42 320 5.0 10.0 0.00 0.00 0.00 50 1017.2
20260507062036 42 332 6.0 12.0 0.00 0.00 0.00 49 1017.2
20260507061539 42 360 8.0 12.0 0.00 0.00 0.00 50 1017.2
20260507061034 41 352 8.0 12.0 0.00 0.00 0.00 50 1017.2
20260507060534 41 320 6.0 10.0 0.00 0.00 0.00 51 1017.1
20260507060040 41 6 6.0 11.0 0.00 0.00 0.00 51 1017.1
20260507055535 41 333 6.0 11.0 0.00 0.00 0.00 51 1017.1
20260507055038 40 359 6.0 13.0 0.00 0.00 0.00 52 1017.1
20260507054549 40 339 7.0 13.0 0.00 0.00 0.00 52 1017.0
20260507054034 40 323 4.0 10.0 0.00 0.00 0.00 53 1017.0
20260507053534 40 342 7.0 10.0 0.00 0.00 0.00 52 1016.8
20260507053050 39 337 5.0 10.0 0.00 0.00 0.00 53 1017.0
20260507052535 39 352 3.0 8.0 0.00 0.00 0.00 54 1017.0
20260507052034 39 334 3.0 8.0 0.00 0.00 0.00 54 1016.8
20260507051545 39 16 4.0 9.0 0.00 0.00 0.00 54 1016.8
20260507051035 39 355 5.0 9.0 0.00 0.00 0.00 54 1016.8
20260507050534 38 351 4.0 9.0 0.00 0.00 0.00 55 1016.7
20260507050042 38 352 4.0 10.0 0.00 0.00 0.00 55 1016.6
20260507045536 38 343 6.0 11.0 0.00 0.00 0.00 55 1016.5
20260507045035 38 326 6.0 11.0 0.00 0.00 0.00 55 1016.6
20260507044547 38 326 6.0 11.0 0.00 0.00 0.00 55 1016.5
20260507044035 37 341 6.0 11.0 0.00 0.00 0.00 56 1016.5
20260507043533 37 314 7.0 11.0 0.00 0.00 0.00 56 1016.5
20260507043046 37 310 6.0 10.0 0.00 0.00 0.00 56 1016.4
20260507042534 37 342 6.0 10.0 0.00 0.00 0.00 56 1016.5
20260507042034 37 341 6.0 13.0 0.00 0.00 0.00 56 1016.5
20260507041549 37 335 6.0 13.0 0.00 0.00 0.00 56 1016.4
20260507041034 37 342 8.0 13.0 0.00 0.00 0.00 56 1016.3
20260507040535 37 24 7.0 11.0 0.00 0.00 0.00 56 1016.3
20260507040046 37 354 7.0 11.0 0.00 0.00 0.00 56 1016.1
20260507035533 37 1 7.0 10.0 0.00 0.00 0.00 56 1016.2
20260507035034 37 342 6.0 10.0 0.00 0.00 0.00 56 1016.0
20260507034552 36 349 6.0 10.0 0.00 0.00 0.00 56 1016.1
20260507034036 36 340 6.0 10.0 0.00 0.00 0.00 56 1016.0
20260507033534 36 357 6.0 9.0 0.00 0.00 0.00 57 1016.0
20260507033044 36 346 5.0 9.0 0.00 0.00 0.00 57 1015.9
20260507032534 36 12 5.0 10.0 0.00 0.00 0.00 57 1015.9
20260507032033 37 342 6.0 10.0 0.00 0.00 0.00 56 1015.9
20260507031603 37 347 5.0 10.0 0.00 0.00 0.00 56 1015.9
20260507031037 37 344 4.0 10.0 0.00 0.00 0.00 56 1015.8
20260507030533 37 20 4.0 10.0 0.00 0.00 0.00 56 1015.8
20260507030053 37 9 6.0 10.0 0.00 0.00 0.00 56 1015.8
20260507025533 37 346 6.0 10.0 0.00 0.00 0.00 56 1015.9
20260507025033 37 346 4.0 9.0 0.00 0.00 0.00 56 1015.8
20260507024546 37 340 4.0 8.0 0.00 0.00 0.00 56 1015.7
20260507024034 37 354 5.0 8.0 0.00 0.00 0.00 56 1015.7
20260507023534 37 331 4.0 7.0 0.00 0.00 0.00 56 1015.6
20260507023047 37 352 3.0 8.0 0.00 0.00 0.00 56 1015.6
20260507022535 37 39 4.0 8.0 0.00 0.00 0.00 55 1015.6
20260507022034 37 16 4.0 8.0 0.00 0.00 0.00 55 1015.5
20260507021543 37 347 5.0 9.0 0.00 0.00 0.00 55 1015.6
20260507021034 38 349 6.0 11.0 0.00 0.00 0.00 55 1015.7
20260507020536 38 359 7.0 11.0 0.00 0.00 0.00 55 1015.5
20260507020049 38 342 6.0 11.0 0.00 0.00 0.00 54 1015.5
20260507015534 38 321 7.0 11.0 0.00 0.00 0.00 55 1015.5
20260507015035 38 349 5.0 10.0 0.00 0.00 0.00 55 1015.5
20260507014557 38 356 6.0 10.0 0.00 0.00 0.00 54 1015.4
20260507014035 38 1 6.0 10.0 0.00 0.00 0.00 54 1015.5
20260507013533 38 351 5.0 10.0 0.00 0.00 0.00 54 1015.4
20260507013038 38 359 6.0 10.0 0.00 0.00 0.00 54 1015.3
20260507012533 38 354 5.0 10.0 0.00 0.00 0.00 54 1015.4
20260507012033 38 314 5.0 10.0 0.00 0.00 0.00 54 1015.2
20260507011545 38 357 5.0 10.0 0.00 0.00 0.00 54 1015.3
20260507011033 38 345 4.0 9.0 0.00 0.00 0.00 54 1015.2
20260507010534 38 345 6.0 9.0 0.00 0.00 0.00 54 1015.3
20260507010044 38 358 6.0 10.0 0.00 0.00 0.00 54 1015.2
20260507005536 38 343 6.0 11.0 0.00 0.00 0.00 54 1015.2
20260507005034 38 343 6.0 11.0 0.00 0.00 0.00 54 1015.2
20260507004540 38 334 7.0 12.0 0.00 0.00 0.00 54 1015.1
20260507004035 38 335 8.0 12.0 0.00 0.00 0.00 54 1015.1
20260507003536 38 359 7.0 13.0 0.00 0.00 0.00 54 1015.1
20260507003043 39 321 7.0 13.0 0.00 0.00 0.00 53 1015.0
20260507002534 39 6 6.0 12.0 0.00 0.00 0.00 53 1014.9
20260507002034 39 335 6.0 12.0 0.00 0.00 0.00 52 1015.0
20260507001541 39 341 7.0 11.0 0.00 0.00 0.00 52 1014.9
20260507001033 39 333 5.0 11.0 0.00 0.00 0.00 52 1015.0
20260507000536 39 347 4.0 11.0 0.00 0.00 0.00 52 1015.1
20260507000042 39 333 6.0 11.0 0.00 0.00 0.00 51 1014.8
20260506235534 40 347 6.0 11.0 0.00 0.00 0.00 51 1014.8
20260506235033 39 27 6.0 10.0 0.00 0.00 0.00 51 1014.8
20260506234538 39 323 5.0 9.0 0.00 0.00 0.00 52 1014.7
20260506234034 39 15 4.0 9.0 0.00 0.00 0.00 53 1014.8
20260506233534 39 27 0.0 7.0 0.00 0.00 0.00 52 1014.7
20260506233055 39 336 3.0 8.0 0.00 0.00 0.00 51 1014.7
20260506232533 40 349 4.0 11.0 0.00 0.00 0.00 51 1014.6
20260506232033 40 339 4.0 11.0 0.00 0.00 0.00 50 1014.5
20260506231544 40 352 6.0 11.0 0.00 0.00 0.00 50 1014.5
20260506231034 40 328 6.0 12.0 0.00 0.00 0.00 50 1014.5
20260506230533 40 323 7.0 12.0 0.00 0.00 0.00 50 1014.3
20260506230043 40 351 7.0 12.0 0.00 0.00 0.00 49 1014.3
20260506225536 40 326 7.0 11.0 0.00 0.00 0.00 49 1014.2
20260506225034 41 334 7.0 13.0 0.00 0.00 0.00 49 1014.3
20260506224550 41 339 9.0 13.0 0.00 0.00 0.00 49 1014.2
20260506224034 41 330 6.0 12.0 0.00 0.00 0.00 48 1014.2
20260506223533 41 340 5.0 10.0 0.00 0.00 0.00 49 1014.3
20260506223038 41 336 5.0 10.0 0.00 0.00 0.00 48 1014.2
20260506222534 41 11 5.0 9.0 0.00 0.00 0.00 48 1014.2
20260506222034 41 333 4.0 11.0 0.00 0.00 0.00 48 1014.1
20260506221546 41 353 2.0 11.0 0.00 0.00 0.00 47 1014.1
20260506221033 42 354 6.0 11.0 0.00 0.00 0.00 46 1014.0
20260506220534 42 327 6.0 12.0 0.00 0.00 0.00 46 1014.1
20260506220045 42 22 6.0 12.0 0.00 0.00 0.00 46 1014.0
20260506215537 42 339 6.0 12.0 0.00 0.00 0.00 46 1013.9
20260506215035 42 335 6.0 11.0 0.00 0.00 0.00 46 1013.9
20260506214544 42 319 6.0 11.0 0.00 0.00 0.00 46 1013.9
20260506214034 42 328 6.0 9.0 0.00 0.00 0.00 45 1013.9
20260506213534 42 36 4.0 8.0 0.00 0.00 0.00 45 1013.9
20260506213048 41 344 3.0 8.0 0.00 0.00 0.00 46 1013.8
20260506212534 42 345 2.0 6.0 0.00 0.00 0.00 45 1013.7
20260506212037 42 356 2.0 9.0 0.00 0.00 0.00 44 1013.7
20260506211539 42 42 3.0 9.0 0.00 0.00 0.00 44 1013.7
20260506211034 42 13 6.0 9.0 0.00 0.00 0.00 43 1013.6
20260506210534 43 29 3.0 9.0 0.00 0.00 0.00 42 1013.5
20260506210038 43 18 5.0 10.0 0.00 0.00 0.00 42 1013.6
20260506205537 43 331 5.0 11.0 0.00 0.00 0.00 41 1013.5
20260506205037 43 329 6.0 12.0 0.00 0.00 0.00 41 1013.6
20260506204550 43 356 5.0 12.0 0.00 0.00 0.00 42 1013.6
20260506204033 42 19 2.0 8.0 0.00 0.00 0.00 43 1013.5
20260506203534 43 0 1.0 7.0 0.00 0.00 0.00 44 1013.5
20260506203045 43 8 2.0 8.0 0.00 0.00 0.00 42 1013.5
20260506202535 43 344 3.0 8.0 0.00 0.00 0.00 41 1013.5
20260506202033 44 354 5.0 8.0 0.00 0.00 0.00 41 1013.4
20260506201545 44 360 3.0 6.0 0.00 0.00 0.00 42 1013.3
20260506201034 44 332 2.0 6.0 0.00 0.00 0.00 44 1013.4
20260506200533 44 53 3.0 8.0 0.00 0.00 0.00 42 1013.5
20260506200040 44 329 3.0 8.0 0.00 0.00 0.00 42 1013.4
20260506195533 44 16 3.0 7.0 0.00 0.00 0.00 43 1013.3
20260506195037 44 347 1.0 4.0 0.00 0.00 0.00 46 1013.2
20260506194541 44 60 1.0 4.0 0.00 0.00 0.00 46 1013.2
20260506194033 44 4 0.0 3.0 0.00 0.00 0.00 48 1013.2
20260506193534 45 0 0.0 3.0 0.00 0.00 0.00 49 1013.1
20260506193055 45 298 1.0 3.0 0.00 0.00 0.00 48 1013.1
20260506192534 45 0 0.0 0.0 0.00 0.00 0.00 48 1013.1
20260506192036 46 0 0.0 2.0 0.00 0.00 0.00 48 1013.0
20260506191548 46 0 0.0 2.0 0.00 0.00 0.00 47 1013.0
20260506191034 46 304 0.0 1.0 0.00 0.00 0.00 46 1012.8
20260506190534 47 302 0.0 1.0 0.00 0.00 0.00 46 1012.9
20260506190045 48 0 0.0 2.0 0.00 0.00 0.00 46 1012.9
20260506185533 48 0 0.0 3.0 0.00 0.00 0.00 45 1012.8
20260506185034 48 182 1.0 4.0 0.00 0.00 0.00 43 1012.7
20260506184543 48 217 1.0 4.0 0.00 0.00 0.00 44 1012.7
20260506184034 48 217 3.0 4.0 0.00 0.00 0.00 43 1012.7
20260506183534 48 212 2.0 5.0 0.00 0.00 0.00 42 1012.7
20260506183039 49 226 3.0 5.0 0.00 0.00 0.00 42 1012.7
20260506182533 49 231 3.0 5.0 0.00 0.00 0.00 42 1012.6
20260506182033 49 240 3.0 6.0 0.00 0.00 0.00 39 1012.5
20260506181545 49 183 4.0 6.0 0.00 0.00 0.00 37 1012.6
20260506181036 50 207 4.0 9.0 0.00 0.00 0.00 38 1012.6
20260506180536 50 237 5.0 9.0 0.00 0.00 0.00 37 1012.6
20260506180059 50 218 6.0 9.0 0.00 0.00 0.00 37 1012.7
20260506175533 50 210 3.0 8.0 0.00 0.00 0.00 38 1012.5
20260506175033 50 165 3.0 9.0 0.00 0.00 0.00 37 1012.4
20260506174545 50 222 2.0 9.0 0.00 0.00 0.00 37 1012.3
20260506174033 50 233 6.0 9.0 0.00 0.00 0.00 36 1012.4
20260506173533 51 159 3.0 9.0 0.00 0.00 0.00 38 1012.4
20260506173044 51 170 3.0 9.0 0.00 0.00 0.00 36 1012.4
20260506172533 51 233 5.0 9.0 0.00 0.00 0.00 36 1012.3
20260506172033 51 165 5.0 11.0 0.00 0.00 0.00 36 1012.2
20260506171549 51 172 7.0 11.0 0.00 0.00 0.00 37 1012.3
20260506171034 51 196 6.0 10.0 0.00 0.00 0.00 38 1012.3
20260506170532 51 95 5.0 9.0 0.00 0.00 0.00 38 1012.2
20260506170055 51 185 5.0 8.0 0.00 0.00 0.00 38 1012.3
20260506165533 51 219 3.0 7.0 0.00 0.00 0.00 38 1012.4